User: anonymous   Login
Location: Brno
(49.2000°N, 16.6330°E)
Time: 11:45:16
(UTC+02:00)
Language:

Cosmos 1603 - Orbit

View from above orbital plane
View from above orbital plane
View from above satellite
View from above satellite

Ground track
Ground track

The orbit data is extracted from the following two-line orbital elements,

1 15333U 84106A   16179.16282250  .00000028  00000-0  39761-4 0  9994
2 15333  71.0258 115.7726 0018671  22.3276 337.8654 14.14030405638076
Epoch (UTC): 27 June 2016 03:54:27
Eccentricity: 0.0018671
inclination: 71.0258°
perigee height: 832 km
apogee height: 859 km
right ascension of ascending node: 115.7726°
argument of perigee: 22.3276°
revolutions per day: 14.14030405
mean anomaly at epoch: 337.8654°
orbit number at epoch: 63807

The dashed part of the orbit path shows where the satellite is in the earth's shadow,  

DLR